Regional Weather Roundup
Issued by NWS Sioux Falls, SD

Home | Current Version | Previous Version | Text Only | Print | Product List | Glossary On
Versions: 1 2 3 4 5 6 7 8 9 10 11 12 13 14 15 16 17 18 19 20 21 22 23 24 25 26 27 28 29 30 31 32 33 34 35 36 37 38 39 40 41 42 43 44 45 46 47 48 49 50
000
ASUS43 KFSD 182110
RWRFSD

WEATHER ROUNDUP FOR SE SOUTH DAKOTA/SW MINNESOTA/NW IOWA
NATIONAL WEATHER SERVICE SIOUX FALLS SD
300 PM CST WED JAN 18 2017

NOTE: "FAIR" INDICATES FEW OR NO CLOUDS BELOW 12,000 FEET WITH NO
SIGNIFICANT WEATHER AND OR OBSTRUCTIONS TO VISIBILITY.


SDZ038>040-050-052>070-182200-
SOUTHEAST SOUTH DAKOTA

CITY           SKY/WX    TMP DP  RH WIND       PRES   REMARKS
BROOKINGS      SUNNY     38  30  73 SE7       29.78F
CHAMBERLAIN    SUNNY     46  30  54 NE6       29.73F
HURON          SUNNY     39  28  64 SE6       29.76F
MADISON          N/A     39  37  93 S8          N/A
MITCHELL       SUNNY     46  34  62 SE9       29.78F
SIOUX FALLS    MOSUNNY   44  35  70 S10       29.81F
WINNER         FAIR      54  25  32 SW12      29.72F
YANKTON        SUNNY     50  39  66 S10       29.79F
$$

MNZ071-072-080-081-089-090-097-098-182200-
SOUTHWEST MINNESOTA

CITY           SKY/WX    TMP DP  RH WIND       PRES   REMARKS
FAIRMONT       SUNNY     40  35  83 S10       29.85S
JACKSON        SUNNY     37  32  81 S13         N/A
LUVERNE        SUNNY     39  34  81 S6        29.83F
MARSHALL       SUNNY     41  30  65 SW6       29.79F
MONTEVIDEO     SUNNY     43  30  61 SW8       29.80S
PIPESTONE      SUNNY     37  34  87 S9        29.80S
REDWOOD FALLS  SUNNY     39  32  76 S12       29.81F
TRACY          SUNNY     40  34  78 SW16      29.80F
WINDOM         SUNNY     41  36  81 S8        29.82F
WORTHINGTON    SUNNY     40  35  83 SW13      29.82S
$$

IAZ001>003-012>014-020>022-031-032-NEZ013-014-SDZ071-182200-
NORTHWEST IOWA

CITY           SKY/WX    TMP DP  RH WIND       PRES   REMARKS
CHEROKEE       SUNNY     47  39  73 SW14G20   29.87F
DENISON        SUNNY     46  41  81 S16       29.88F
ESTHERVILLE    SUNNY     40  38  93 S13       29.84F
LE MARS        SUNNY     46  41  81 S9G16     29.86S
ORANGE CITY    SUNNY     45  41  87 S12       29.85S
SHELDON        SUNNY     45  45 100 S13       29.83S
SIOUX CITY     SUNNY     50  39  66 SW16      29.87F
SPENCER        SUNNY     43  39  86 S15       29.85F
STORM LAKE     SUNNY     45  41  87 S15       29.88F
$$

ABBREVIATIONS USED IN REMARKS
   TC - TEMPERATURE IN CELSIUS
  WCI - WIND CHILL INDEX
   HX - HEAT INDEX
  VSB - VISIBILITY




USA.gov is the U.S. government's official web portal to all federal, state and local government web resources and services.